RS19S (SXC3-219 ISOI) (53381 NORAD) Tracking and Keplerian Element Data

This shows tracking and keplerian element data for the satellite.

Feedback or suggestion? Click here.




ElementValue
Catalog53381
NameRS19S (SXC3-219 ISOI)
Epoch Orbit1582
Epoch Day325.06495248
Epoch Year2022
RAAN225.9177
Inclination97.4275
Eccentricity0.000628
Argument of Perigee81.6603
Mean Anonmoly31.2718
Mean Motion15.27195563
Decay Rate9.133E-05
L11 53381U 22096M 22325.06495248 .00009133 00000+0 34509-3 0 9990
L22 53381 97.4275 225.9177 0006280 81.6603 31.2718 15.27195563 15821



Live tracking and technical data element details for RS19S (SXC3-219 ISOI) (NORAD 53381). RS19S (SXC3-219 ISOI) can be tracked NOW for your location showing map with azimuth and elevation plus other details from your city location.







IsCatalogInMostPopularTable: catalog: 53381, numindb: 5
Update: records affected: 1



GetName: 53381 RS19S (SXC3-219 ISOI)

Hit Count: updated at: Tue, 29 Nov 2022 01:45:36 GMT